{"data":{"norad_id":26113,"epoch":"2026-09-15T09:30:27.688320Z","epoch_age_seconds":451897,"freshness":"STALE","line1":"1 26113U 00017A   26258.39615380  .00000095  00000+0  00000+0 0  9991","line2":"2 26113  94.2859 316.5027 7374933 277.7380  11.9141  1.68668625163023","mean_motion":1.68668625,"eccentricity":0.7374933,"inclination_deg":94.2859,"raan_deg":316.5027,"arg_perigee_deg":277.738,"mean_anomaly_deg":11.9141,"bstar":0,"rev_number":16302,"period_min":853.74502815802,"perigee_km":1447.4939677298,"apogee_km":45418.565235421,"semimajor_km":29811.166601576,"source":"CELESTRAK","updated_at":"2026-09-20T09:00:13.534958Z"}}